Satellite-Ground Cal/Val Site Overpasses Predictions

Prediction of Satellite NPP Overpassing Cal/Val Site: Antarctic Dome C

Ground Cal/Val Site Location: Latitude: -75.10, Longitude: 123.35; Satellite-Ground Site NADIR distance within 100 km.

Table of predicted overpasses for the next 14.0 days since TLE Epoch: 4/24/2021
Interval Starting Time Ending Time Minimum Distance Time Minimum Distance (km)
1 04/24/2021 15:06:52 04/24/2021 15:07:01 04/24/2021 15:06:57 94.25
2 04/25/2021 14:47:51 04/25/2021 14:48:20 04/25/2021 14:48:06 16.98
3 04/27/2021 07:30:41 04/27/2021 07:31:10 04/27/2021 07:30:55 3.96
4 04/30/2021 14:54:06 04/30/2021 14:54:34 04/30/2021 14:54:20 19.13
5 05/01/2021 14:35:24 05/01/2021 14:35:38 05/01/2021 14:35:31 87.73
6 05/02/2021 07:36:55 05/02/2021 07:37:22 05/02/2021 07:37:08 32.70
7 05/03/2021 07:18:10 05/03/2021 07:18:28 05/03/2021 07:18:19 77.70
8 05/05/2021 15:00:22 05/05/2021 15:00:46 05/05/2021 15:00:34 55.84
9 05/06/2021 14:41:31 05/06/2021 14:41:56 05/06/2021 14:41:44 53.25
